This demonstration page uses our WeatherBlox Daily Observations layout. Learn more.

Left ArrowRight Arrow

Hourly Observations for August 12, 2017

Temp ( °F °C ) Dew Point ( °F °C ) Humidity (%) Winds ( mph kmh ) Pressure ( in mb ) Visibility ( mi km ) Precip ( " mm )
12:15 am 00:15 Partly Cloudy 64 18 61 16.3 90 90 NNW 6 9 30.00 1016 10 16 0.00 0.00
12:35 am 00:35 Partly Cloudy 64 17.5 61 16.1 92 92 N 5 7 30.00 1016 10 16 0.00 0.00
12:55 am 00:55 Clear 63 17.1 61 16 93 93 N 5 7 30.03 1017 10 16 0.00 0.00
1:15 am 01:15 Clear 62 16.6 60 15.6 94 94 NNW 5 7 30.03 1017 10 16 0.00 0.00
1:35 am 01:35 Clear 61 16.1 60 15.3 95 95 N 3 6 30.03 1017 10 16 0.00 0.00
1:55 am 01:55 Clear 61 15.9 59 15.1 95 95 NNW 3 6 30.00 1016 10 16 0.00 0.00
2:15 am 02:15 Clear 59 15.2 58 14.7 97 97 N 5 7 30.00 1016 10 16 0.00 0.00
2:35 am 02:35 Clear 59 15.2 59 14.9 98 98 N 5 7 30.00 1016 10 16 0.00 0.00
2:55 am 02:55 Clear 59 15.1 58 14.7 97 97 N 3 6 30.00 1016 10 16 0.00 0.00
3:15 am 03:15 Clear 58 14.7 58 14.3 97 97 NNW 5 7 30.00 1016 10 16 0.00 0.00
3:35 am 03:35 Clear 58 14.6 58 14.3 98 98 NNW 5 7 30.00 1016 7 11 0.00 0.00
3:55 am 03:55 Clear 57 14 57 13.7 98 98 NNW 3 6 30.00 1016 7 11 0.00 0.00
4:15 am 04:15 Clear 58 14.4 58 14.2 99 99 Calm 30.03 1017 7 11 0.00 0.00
4:35 am 04:35 Clear with Mist and Fog 58 14.2 57 14.1 99 99 Calm 30.00 1016 4 6 0.00 0.00
4:55 am 04:55 Clear with Mist and Fog 57 14.1 57 13.9 99 99 Calm 30.00 1016 4 6 0.00 0.00
5:15 am 05:15 Clear with Mist and Fog 56 13.2 56 13.1 99 99 Calm 30.00 1016 5 8 0.00 0.00
5:35 am 05:35 Mostly Cloudy with Mist and Fog 56 13.1 55 13 99 99 Calm 30.03 1017 1 2 0.00 0.00
5:55 am 05:55 Clear with Mist and Fog 56 13.5 56 13.3 99 99 NNW 3 6 30.03 1017 4 6 0.00 0.00
6:15 am 06:15 Clear with Mist and Fog 55 12.5 54 12.4 99 99 NNW 5 7 30.06 1018 4 6 0.00 0.00
6:35 am 06:35 Clear with Mist and Fog 56 13.6 56 13.6 100 100 NW 5 7 30.03 1017 5 8 0.00 0.00
6:55 am 06:55 Sunny with Mist and Fog 55 13 55 13 100 100 Calm 30.03 1017 3 4 0.00 0.00
7:15 am 07:15 Mostly Cloudy with Mist and Fog 55 12.6 55 12.6 100 100 NNW 3 6 30.06 1018 2 2 0.00 0.00
7:35 am 07:35 Sunny with Mist and Fog 56 13.4 56 13.4 100 100 NNW 5 7 30.03 1017 2 3 0.00 0.00
7:55 am 07:55 Sunny with Mist and Fog 58 14.6 58 14.5 99 99 NNW 3 6 30.03 1017 3 5 0.00 0.00
8:15 am 08:15 Sunny with Mist and Fog 59 15.1 59 15 99 99 N 3 6 30.03 1017 3 5 0.00 0.00
8:35 am 08:35 Sunny with Mist and Fog 61 16 60 15.7 98 98 N 5 7 30.03 1017 5 8 0.00 0.00
8:55 am 08:55 Sunny 63 17.1 62 16.4 96 96 NNW 5 7 30.03 1017 7 11 0.00 0.00
9:15 am 09:15 Sunny 64 17.8 62 16.5 92 92 NNW 8 13 30.06 1018 10 16 0.00 0.00
9:35 am 09:35 Sunny 65 18.5 62 16.6 89 89 NNW 9 15 30.06 1018 10 16 0.00 0.00
9:55 am 09:55 Mostly Cloudy 67 19.2 63 17.2 88 88 NNW 6 9 30.06 1018 10 16 0.00 0.00
10:15 am 10:15 Cloudy 67 19.3 63 17 87 87 NNW 7 11 30.06 1018 10 16 0.00 0.00
10:35 am 10:35 Mostly Cloudy 67 19.4 61 16.3 82 82 NNW 8 13 30.06 1018 10 16 0.00 0.00
10:55 am 10:55 Mostly Cloudy 67 19.4 61 16.2 82 82 NNW 6 9 30.06 1018 10 16 0.00 0.00
11:15 am 11:15 Mostly Cloudy 70 21.2 62 16.7 76 76 N 8 13 30.06 1018 10 16 0.00 0.00
11:35 am 11:35 Mostly Cloudy 69 20.8 60 15.8 73 73 NNW 7 11 30.06 1018 10 16 0.00 0.00
11:55 am 11:55 Mostly Cloudy 70 21.1 60 15.5 71 71 NNW 8 13 30.06 1018 10 16 0.00 0.00
12:15 pm 12:15 Mostly Cloudy 70 21.3 61 16.1 72 72 N 6 9 30.06 1018 10 16 0.00 0.00
12:35 pm 12:35 Partly Cloudy 72 22.4 61 15.9 67 67 NW 7 11 30.03 1017 10 16 0.00 0.00
12:55 pm 12:55 Partly Cloudy 72 22.2 59 15.1 64 64 NNW 8 13 30.03 1017 10 16 0.00 0.00
1:15 pm 13:15 Partly Cloudy 74 23.2 61 16 64 64 NNW 9 15 30.03 1017 10 16 0.00 0.00
1:35 pm 13:35 Partly Cloudy 73 23 59 15.2 62 62 NNW 6 9 30.03 1017 10 16 0.00 0.00
1:55 pm 13:55 Partly Cloudy 74 23.5 59 15.1 59 59 WNW 7 11 30.03 1017 10 16 0.00 0.00
2:15 pm 14:15 Partly Cloudy 73 23 60 15.3 62 62 NW 8 13 30.03 1017 10 16 0.00 0.00

Powered by AerisWeather